Weather History for Price, UT

Change the Weather History Date:

Monday, April 1, 2013

  Actual Average Record
Temperature  
Mean Temperature 49 °F -  
Max Temperature 62 °F 53 °F 70 °F (2002)
Min Temperature 39 °F 29 °F 17 °F (1980)
Degree Days  
Heating Degree Days 16    
Moisture  
Dew Point 32 °F    
Average Humidity 59    
Maximum Humidity 87    
Minimum Humidity 31    
Precipitation  
Precipitation 0.24 in - - ()
Sea Level Pressure  
Sea Level Pressure 29.89 in    
Wind  
Wind Speed 8 mph (North)    
Max Wind Speed 22 mph    
Max Gust Speed 29 mph    
Visibility 10 miles    
Events Rain    
Averages and records for this station are not official NWS values.
T = Trace of Precipitation, MM = Missing Value Source: NWS Daily Summary

Daily Weather History Graph

Daily Weather History Graph

Search for Another Location

Airport:

Trip Planner

Search our weather history database for the weather conditions in past years. The results will help you decide how hot, cold, wet, or windy it might be!

Date:

Astronomy

Apr. 01, 2013 Rise Set
Actual Time 7:06 AM MDT 7:47 PM MDT
Civil Twilight 6:39 AM MDT 8:14 PM MDT
Nautical Twilight 6:07 AM MDT 8:46 PM MDT
Astronomical Twilight 5:34 AM MDT 9:19 PM MDT
Moon 12:58 AM MDT (4/1) 10:58 AM MDT (4/1)
Length of Visible Light 13h 35m
Length of Day
12h 40m
Waning Gibbous, 66% of the Moon is Illuminated
Apr 1
Waning Gibbous
Apr 2
Last Quarter
Apr 10
New
Apr 18
First Quarter
Apr 25
Full

Hourly Weather History & Observations

Time (MDT) Temp. Windchill Dew Point Humidity Pressure Visibility Wind Dir Wind Speed Gust Speed Precip Events Conditions
12:53 AM 51.1 °F - 28.0 °F 41% 29.89 in 10.0 mi Calm Calm - N/A   Mostly Cloudy
1:53 AM 48.0 °F - 28.0 °F 46% 29.90 in 10.0 mi WNW 3.5 mph - N/A   Mostly Cloudy
2:53 AM 45.0 °F 40.1 °F 28.0 °F 52% 29.89 in 10.0 mi North 9.2 mph - N/A   Clear
3:53 AM 42.1 °F 37.1 °F 27.0 °F 55% 29.89 in 10.0 mi NNE 8.1 mph - N/A   Clear
4:53 AM 39.9 °F 35.1 °F 28.0 °F 63% 29.91 in 10.0 mi NNE 6.9 mph - N/A   Partly Cloudy
5:53 AM 44.1 °F 40.1 °F 30.9 °F 60% 29.89 in 10.0 mi NE 6.9 mph - 0.00 in   Scattered Clouds
6:53 AM 41.0 °F 38.0 °F 28.0 °F 60% 29.90 in 10.0 mi NNW 4.6 mph - N/A   Clear
12:53 PM 59.0 °F - 28.0 °F 31% 29.80 in 10.0 mi SSE 15.0 mph 23.0 mph N/A   Scattered Clouds
1:53 PM 46.0 °F 38.0 °F 35.1 °F 66% 29.90 in 7.0 mi WSW 21.9 mph 28.8 mph 0.03 in Rain Light Rain
1:58 PM 41.0 °F 31.4 °F 33.8 °F 76% 29.94 in 2.0 mi West 21.9 mph 28.8 mph 0.07 in Rain Heavy Rain
2:15 PM 39.2 °F 30.2 °F 35.6 °F 87% 29.94 in 10.0 mi NW 17.3 mph 25.3 mph 0.19 in Rain Light Rain
2:53 PM 48.0 °F - 39.0 °F 71% 29.89 in 10.0 mi North 12.7 mph - 0.19 in   Mostly Cloudy
3:00 PM - - - N/A% - - North - - N/A   Unknown
3:53 PM 53.1 °F - 37.0 °F 55% 29.87 in - ENE 11.5 mph - N/A   Unknown
4:53 PM 55.0 °F - 33.1 °F 43% 29.86 in 10.0 mi North 11.5 mph 17.3 mph N/A   Scattered Clouds
5:16 PM 50.0 °F - 35.6 °F 58% 29.92 in 10.0 mi WNW 18.4 mph 25.3 mph N/A   Mostly Cloudy
5:53 PM 46.0 °F 41.0 °F 36.0 °F 68% 29.91 in 10.0 mi North 10.4 mph - 0.02 in   Overcast
6:53 PM 48.0 °F - 35.1 °F 61% 29.91 in 10.0 mi NNE 10.4 mph - 0.00 in   Partly Cloudy
7:53 PM 45.0 °F 40.6 °F 33.1 °F 63% 29.92 in 10.0 mi North 8.1 mph - N/A   Clear
8:53 PM 45.0 °F 39.7 °F 30.0 °F 56% 29.89 in 10.0 mi NNW 10.4 mph - N/A   Scattered Clouds
9:53 PM 42.1 °F - 30.0 °F 62% 29.91 in 10.0 mi Calm Calm - N/A   Mostly Cloudy
10:53 PM 44.1 °F 39.5 °F 30.0 °F 58% 29.88 in 10.0 mi NNW 8.1 mph - N/A   Clear
11:53 PM 42.1 °F 37.7 °F 30.9 °F 65% 29.87 in 10.0 mi NNW 6.9 mph - N/A   Partly Cloudy